Location: Newark
(48.2308°N, 120.8549°W)
Time: 07:15:12
(UTC+00:00)

FENGYUN 1C DEB - Visible Passes

Search period start: 29 January 2022 00:00
Search period end: 08 February 2022 00:00
Orbit: 820 x 952 km, 99.2° (Epoch: 28 January)

Date Brightness Start Highest point End Pass type
(mag) Time Alt. Az. Time Alt. Az. Time Alt. Az.
29 Jan ? 01:44:20 10° ESE 01:48:49 22° NE 01:53:17 10° N visible
29 Jan ? 03:23:33 10° SSE 03:29:35 79° WSW 03:35:36 10° NNW visible
29 Jan ? 05:08:51 10° WSW 05:11:51 14° W 05:14:52 10° NW visible
30 Jan ? 01:43:02 10° ESE 01:47:28 22° NE 01:51:52 10° N visible
30 Jan ? 03:22:10 10° SSE 03:28:13 80° WSW 03:34:13 10° NNW visible
30 Jan ? 05:07:20 10° WSW 05:10:27 14° W 05:13:36 10° NW visible
31 Jan ? 01:41:45 10° ESE 01:46:07 22° NE 01:50:27 10° N visible
31 Jan ? 03:20:47 10° SSE 03:26:50 82° WSW 03:32:50 10° NNW visible
31 Jan ? 05:05:48 10° WSW 05:09:03 15° W 05:12:18 10° NW visible
01 Feb ? 01:40:27 10° ESE 01:44:46 21° NE 01:49:02 10° N visible
01 Feb ? 03:19:25 10° SSE 03:25:28 84° WSW 03:31:28 10° NNW visible
01 Feb ? 05:04:18 10° WSW 05:07:39 15° W 05:11:01 10° NW visible
02 Feb ? 01:39:10 10° E 01:43:24 21° NE 01:47:36 10° N visible
02 Feb ? 03:18:04 10° SSE 03:24:06 86° WSW 03:30:04 10° NNW visible
02 Feb ? 05:02:49 10° WSW 05:06:16 16° W 05:09:43 10° NW visible
03 Feb ? 01:37:52 10° E 01:42:03 20° NE 01:46:10 10° N visible
03 Feb ? 03:16:41 10° SSE 03:22:43 88° WSW 03:28:40 10° NNW visible
03 Feb ? 05:01:19 10° SW 05:04:52 16° W 05:08:24 10° NW visible
04 Feb ? 01:36:35 10° E 01:40:41 20° NE 01:44:44 10° N visible
04 Feb ? 03:15:19 10° SSE 03:21:21 89° W 03:27:18 10° NNW visible
04 Feb ? 04:59:50 10° SW 05:03:27 16° W 05:07:05 10° NW visible
05 Feb ? 01:35:18 10° E 01:39:20 19° NE 01:43:18 10° NNE visible
05 Feb ? 03:13:56 10° SSE 03:19:58 89° ENE 03:25:54 10° NNW visible
05 Feb ? 04:58:20 10° SW 05:02:03 17° W 05:05:46 10° NW visible
06 Feb ? 03:12:34 10° SSE 03:18:35 87° ENE 03:24:30 10° NNW visible
06 Feb ? 04:56:51 10° SW 05:00:39 17° W 05:04:26 10° NW visible
07 Feb ? 03:11:12 10° SSE 03:17:12 85° ENE 03:23:06 10° NNW visible
07 Feb ? 04:55:22 10° SW 04:59:15 18° W 05:03:06 10° NW visible
